Greenville, MS

6:40 PM CDT on September 22, 2019 (GMT -0500)
Mid Delta Regional

Weather History for KGLH - August, 2019

Change the Weather History Date:

Tuesday, August 20, 2019

  Actual Average Record
Temperature  
Mean Temperature 83 °F 81 °F  
Max Temperature 93 °F 92 °F 105 °F (1925)
Min Temperature 73 °F 71 °F 59 °F (1940)
Degree Days  
Heating Degree Days 0 0  
Month to date heating degree days 0 0  
Since 1 June heating degree days 0 0  
Since 1 July heating degree days 0 0  
Cooling Degree Days 18 16  
Month to date cooling degree days 367 339  
Year to date cooling degree days 1681 1608  
Since 1 June cooling degree days 1285 1286  
Growing Degree Days 33 (Base 50)    
Moisture  
Dew Point 74 °F    
Average Humidity 81    
Maximum Humidity 100    
Minimum Humidity 52    
Precipitation  
Precipitation 0.00 in 0.11 in 4.29 in (2018)
Month to date precipitation 2.94 1.35  
Year to date precipitation 58.39 33.45  
Sea Level Pressure  
Sea Level Pressure 30.04 in    
Wind  
Wind Speed 4 mph ()    
Max Wind Speed 10 mph    
Max Gust Speed 12 mph    
Visibility 8.0 miles    
Events Fog    
T = Trace of Precipitation, MM = Missing Value Source: Averaged Metar Reports

Daily Weather History Graph

Daily Weather History Graph

Search for Another Location

Airport or City:

Astronomy

Aug. 20, 2019 Rise Set
Actual Time 6:29 AM CDT 7:44 PM CDT
Civil Twilight 6:03 AM CDT 8:10 PM CDT
Nautical Twilight 5:32 AM CDT 8:41 PM CDT
Astronomical Twilight 5:00 AM CDT 9:13 PM CDT
Moon 10:47 PM CDT (8/20) 10:55 AM CDT (8/20)
Length of Visible Light 14h 06m
Length of Day
13h 14m
Waning Gibbous, 77% of the Moon is Illuminated
Aug 20
Waning Gibbous
Aug 23
Last Quarter
Aug 30
New
Sep 5
First Quarter
Sep 13
Full

Hourly Weather History & Observations

Time (CDT) Temp. Heat Index Dew Point Humidity Pressure Visibility Wind Dir Wind Speed Gust Speed Precip Events Conditions
12:53 AM 75.9 °F - 73.9 °F 94% 30.04 in 10.0 mi ESE 5.8 mph - N/A   Clear
1:53 AM 75.9 °F - 73.9 °F 94% 30.02 in 10.0 mi Calm Calm - N/A   Clear
2:53 AM 73.9 °F - 73.0 °F 97% 30.01 in 7.0 mi SE 3.5 mph - N/A   Clear
3:53 AM 75.0 °F - 73.0 °F 94% 30.02 in 9.0 mi SW 3.5 mph - N/A   Clear
4:53 AM 73.9 °F - 73.0 °F 97% 30.03 in 3.0 mi SE 3.5 mph - N/A   Clear
5:01 AM 73.9 °F - 72.0 °F 93% 30.02 in 1.8 mi Calm Calm - N/A   Clear
5:03 AM 73.9 °F - 73.0 °F 97% 30.02 in 1.0 mi SE 3.5 mph - N/A   Mist
5:11 AM 73.9 °F - 72.0 °F 93% 30.03 in 0.5 mi ESE 5.8 mph - N/A Fog Fog
5:23 AM 73.9 °F - 73.0 °F 97% 30.03 in 1.2 mi ESE 5.8 mph - N/A   Scattered Clouds
5:28 AM 73.9 °F - 73.0 °F 97% 30.03 in 3.0 mi SE 4.6 mph - N/A   Scattered Clouds
5:53 AM 73.9 °F - 72.0 °F 93% 30.05 in 5.0 mi SE 4.6 mph - N/A   Clear
6:53 AM 73.9 °F - 73.0 °F 97% 30.06 in 10.0 mi South 5.8 mph - N/A   Clear
7:53 AM 75.9 °F - 73.9 °F 94% 30.07 in 10.0 mi SSE 6.9 mph - N/A   Clear
8:53 AM 79.0 °F - 73.9 °F 84% 30.07 in 10.0 mi South 8.1 mph - N/A   Clear
9:53 AM 82.9 °F 89.4 °F 73.9 °F 74% 30.08 in 10.0 mi Variable 4.6 mph - N/A   Clear
10:53 AM 87.1 °F 96.3 °F 75.0 °F 67% 30.09 in 10.0 mi ESE 5.8 mph - N/A   Clear
11:53 AM 88.0 °F 95.6 °F 73.0 °F 61% 30.09 in 10.0 mi East 3.5 mph - N/A   Clear
12:53 PM 91.0 °F 101.6 °F 75.0 °F 59% 30.07 in 10.0 mi SSE 4.6 mph - N/A   Clear
1:53 PM 91.9 °F 101.3 °F 73.9 °F 55% 30.06 in 10.0 mi ESE 6.9 mph - N/A   Clear
2:53 PM 93.0 °F 103.2 °F 73.9 °F 54% 30.04 in 10.0 mi SE 6.9 mph - N/A   Clear
3:53 PM 93.0 °F 101.9 °F 73.0 °F 52% 30.01 in 10.0 mi SE 5.8 mph - N/A   Clear
4:53 PM 91.9 °F 101.3 °F 73.9 °F 55% 30.00 in 10.0 mi ESE 6.9 mph - N/A   Clear
5:53 PM 91.0 °F 101.6 °F 75.0 °F 59% 30.00 in 10.0 mi ESE 4.6 mph - N/A   Clear
6:53 PM 88.0 °F 100.2 °F 77.0 °F 70% 30.01 in 10.0 mi SE 5.8 mph - N/A   Clear
7:53 PM 82.9 °F 90.8 °F 75.9 °F 79% 30.05 in 10.0 mi ESE 5.8 mph - N/A   Clear
8:53 PM 79.0 °F - 75.0 °F 88% 30.07 in 10.0 mi ESE 3.5 mph - N/A   Clear
9:53 PM 79.0 °F - 73.9 °F 84% 30.08 in 10.0 mi SE 3.5 mph - N/A   Clear
10:53 PM 77.0 °F - 73.9 °F 90% 30.08 in 10.0 mi Calm Calm - N/A   Clear
11:53 PM 77.0 °F - 73.9 °F 90% 30.07 in 10.0 mi North 4.6 mph - N/A   Clear